| time (UTC) | temp C | wind direction | speed KPH | gust KPH | rain 1hr cm | rain 24hr cm | rain mn cm | humidity % | barometer mb |
| 20260509235859 | 12 | 148 | 0.0 | 0.0 | 0.00 | 1.75 | 1.75 | 93 | 1009.1 |
| 20260509235356 | 12 | 148 | 0.0 | 0.0 | 0.00 | 1.75 | 1.75 | 93 | 1009.1 |
| 20260509234852 | 13 | 147 | 0.0 | 0.0 | 0.00 | 1.75 | 1.75 | 93 | 1008.7 |
| 20260509234350 | 13 | 147 | 0.0 | 0.0 | 0.00 | 1.75 | 1.75 | 93 | 1008.7 |
| 20260509233847 | 13 | 147 | 0.0 | 0.0 | 0.00 | 1.75 | 1.75 | 91 | 1008.8 |
| 20260509233345 | 13 | 147 | 0.0 | 0.0 | 0.00 | 1.75 | 1.75 | 91 | 1008.8 |
| 20260509232840 | 13 | 147 | 0.0 | 0.0 | 0.00 | 1.75 | 1.75 | 90 | 1008.5 |
| 20260509232339 | 13 | 147 | 0.0 | 0.0 | 0.00 | 1.75 | 1.75 | 90 | 1008.5 |
| 20260509231834 | 13 | 147 | 0.0 | 0.0 | 0.00 | 1.75 | 1.75 | 86 | 1008.3 |
| 20260509231331 | 13 | 147 | 0.0 | 0.0 | 0.00 | 1.75 | 1.75 | 86 | 1008.3 |
| 20260509230829 | 14 | 140 | 0.0 | 0.0 | 0.00 | 1.75 | 1.75 | 86 | 1008.5 |
| 20260509230326 | 14 | 140 | 0.0 | 0.0 | 0.00 | 1.75 | 1.75 | 86 | 1008.5 |
| 20260509225821 | 14 | 121 | 0.0 | 0.0 | 0.00 | 1.75 | 1.75 | 85 | 1008.5 |
| 20260509225318 | 14 | 121 | 0.0 | 0.0 | 0.00 | 1.75 | 1.75 | 85 | 1008.5 |
| 20260509224814 | 14 | 137 | 0.0 | 0.0 | 0.00 | 1.75 | 1.75 | 84 | 1008.5 |
| 20260509224310 | 14 | 137 | 0.0 | 0.0 | 0.00 | 1.75 | 1.75 | 84 | 1008.5 |
| 20260509223807 | 14 | 147 | 3.2 | 3.2 | 0.00 | 1.75 | 1.75 | 84 | 1008.5 |
| 20260509223304 | 14 | 147 | 3.2 | 3.2 | 0.00 | 1.75 | 1.75 | 84 | 1008.5 |
| 20260509222801 | 14 | 136 | 0.0 | 1.6 | 0.00 | 1.75 | 1.75 | 84 | 1008.6 |
| 20260509222256 | 14 | 136 | 0.0 | 1.6 | 0.00 | 1.75 | 1.75 | 84 | 1008.6 |
| 20260509221752 | 14 | 155 | 0.0 | 0.0 | 0.00 | 1.75 | 1.75 | 86 | 1008.7 |
| 20260509221249 | 14 | 155 | 0.0 | 0.0 | 0.00 | 1.75 | 1.75 | 86 | 1008.7 |
| 20260509220745 | 14 | 138 | 1.6 | 1.6 | 0.00 | 1.75 | 1.75 | 86 | 1008.7 |
| 20260509220241 | 14 | 138 | 1.6 | 1.6 | 0.00 | 1.75 | 1.75 | 86 | 1008.7 |
| 20260509215736 | 13 | 146 | 0.0 | 0.0 | 0.00 | 1.75 | 1.75 | 88 | 1008.7 |
| 20260509215234 | 13 | 146 | 0.0 | 0.0 | 0.00 | 1.75 | 1.75 | 88 | 1008.7 |
| 20260509214731 | 13 | 142 | 0.0 | 0.0 | 0.00 | 1.75 | 1.75 | 92 | 1008.9 |
| 20260509214228 | 13 | 142 | 0.0 | 0.0 | 0.00 | 1.75 | 1.75 | 92 | 1008.9 |
| 20260509213725 | 13 | 148 | 1.6 | 1.6 | 0.00 | 1.75 | 1.75 | 93 | 1009.2 |
| 20260509213220 | 13 | 148 | 1.6 | 1.6 | 0.00 | 1.75 | 1.75 | 93 | 1009.2 |
| 20260509212718 | 13 | 166 | 0.0 | 0.0 | 0.00 | 1.75 | 1.75 | 93 | 1009.1 |
| 20260509212215 | 13 | 131 | 0.0 | 0.0 | 0.00 | 1.75 | 1.75 | 96 | 1009.3 |
| 20260509211711 | 13 | 131 | 0.0 | 0.0 | 0.00 | 1.75 | 1.75 | 96 | 1009.3 |
| 20260509211207 | 12 | 132 | 0.0 | 0.0 | 0.00 | 1.75 | 1.75 | 95 | 1009.3 |
| 20260509210704 | 12 | 132 | 0.0 | 0.0 | 0.00 | 1.75 | 1.75 | 95 | 1009.3 |
| 20260509210201 | 12 | 140 | 0.0 | 0.0 | 0.00 | 1.75 | 1.75 | 96 | 1009.5 |
| 20260509205701 | 12 | 140 | 0.0 | 0.0 | 0.00 | 1.75 | 1.75 | 96 | 1009.5 |
| 20260509205201 | 12 | 129 | 1.6 | 1.6 | 0.00 | 1.75 | 1.75 | 96 | 1009.6 |
| 20260509204657 | 12 | 129 | 1.6 | 1.6 | 0.00 | 1.75 | 1.75 | 96 | 1009.6 |
| 20260509204154 | 12 | 122 | 0.0 | 0.0 | 0.00 | 1.75 | 1.75 | 96 | 1009.7 |
| 20260509203650 | 12 | 122 | 0.0 | 0.0 | 0.00 | 1.75 | 1.75 | 96 | 1009.7 |
| 20260509203148 | 12 | 135 | 0.0 | 0.0 | 0.00 | 1.75 | 1.75 | 98 | 1009.6 |
| 20260509202643 | 12 | 135 | 0.0 | 0.0 | 0.00 | 1.75 | 1.75 | 98 | 1009.6 |
| 20260509202138 | 12 | 141 | 1.6 | 1.6 | 0.18 | 1.75 | 1.75 | 98 | 1009.5 |
| 20260509201634 | 12 | 141 | 1.6 | 1.6 | 0.18 | 1.75 | 1.75 | 98 | 1009.5 |
| 20260509201131 | 12 | 158 | 0.0 | 0.0 | 0.30 | 1.73 | 1.73 | 98 | 1009.5 |
| 20260509200627 | 12 | 158 | 0.0 | 0.0 | 0.30 | 1.73 | 1.73 | 98 | 1009.5 |
| 20260509200123 | 12 | 146 | 1.6 | 1.6 | 0.61 | 1.68 | 1.68 | 99 | 1009.5 |
| 20260509195619 | 12 | 146 | 1.6 | 1.6 | 0.61 | 1.68 | 1.68 | 99 | 1009.5 |
| 20260509195113 | 12 | 151 | 0.0 | 0.0 | 0.89 | 1.57 | 1.57 | 98 | 1009.6 |
| 20260509194612 | 12 | 151 | 0.0 | 0.0 | 0.89 | 1.57 | 1.57 | 98 | 1009.6 |
| 20260509194111 | 12 | 156 | 0.0 | 0.0 | 0.48 | 1.42 | 1.42 | 98 | 1009.9 |
| 20260509193606 | 12 | 156 | 0.0 | 0.0 | 0.48 | 1.42 | 1.42 | 98 | 1009.9 |
| 20260509193102 | 11 | 140 | 0.0 | 0.0 | 0.61 | 1.35 | 1.35 | 98 | 1010.2 |
| 20260509192559 | 11 | 140 | 0.0 | 0.0 | 0.61 | 1.35 | 1.35 | 98 | 1010.2 |
| 20260509192054 | 11 | 136 | 0.0 | 0.0 | 1.19 | 1.24 | 1.24 | 97 | 1010.5 |
| 20260509191555 | 11 | 136 | 0.0 | 0.0 | 1.19 | 1.24 | 1.24 | 97 | 1010.5 |
| 20260509191051 | 11 | 161 | 0.0 | 0.0 | 1.07 | 1.07 | 1.07 | 97 | 1010.5 |
| 20260509190548 | 11 | 161 | 0.0 | 0.0 | 1.07 | 1.07 | 1.07 | 97 | 1010.5 |
| 20260509190046 | 11 | 151 | 0.0 | 0.0 | 0.89 | 0.89 | 0.89 | 97 | 1010.7 |
| 20260509185543 | 11 | 151 | 0.0 | 0.0 | 0.89 | 0.89 | 0.89 | 97 | 1010.7 |
| 20260509185039 | 11 | 148 | 0.0 | 0.0 | 0.61 | 0.74 | 0.74 | 96 | 1010.6 |
| 20260509184537 | 11 | 148 | 0.0 | 0.0 | 0.61 | 0.74 | 0.74 | 96 | 1010.6 |
| 20260509184033 | 11 | 137 | 0.0 | 0.0 | 0.61 | 0.64 | 0.64 | 95 | 1010.5 |
| 20260509183529 | 11 | 137 | 0.0 | 0.0 | 0.61 | 0.64 | 0.64 | 95 | 1010.5 |
| 20260509183025 | 11 | 162 | 0.0 | 0.0 | 0.48 | 0.53 | 0.53 | 95 | 1010.5 |
| 20260509182521 | 11 | 162 | 0.0 | 0.0 | 0.48 | 0.53 | 0.53 | 95 | 1010.5 |
| 20260509182019 | 11 | 135 | 0.0 | 0.0 | 0.48 | 0.48 | 0.48 | 95 | 1010.5 |
| 20260509181517 | 11 | 135 | 0.0 | 0.0 | 0.48 | 0.48 | 0.48 | 95 | 1010.5 |
| 20260509181014 | 11 | 139 | 0.0 | 0.0 | 0.48 | 0.41 | 0.41 | 95 | 1010.6 |
| 20260509180509 | 11 | 139 | 0.0 | 0.0 | 0.48 | 0.41 | 0.41 | 95 | 1010.6 |
| 20260509180008 | 11 | 122 | 0.0 | 0.0 | 0.48 | 0.36 | 0.36 | 95 | 1010.5 |
| 20260509175502 | 11 | 122 | 0.0 | 0.0 | 0.48 | 0.36 | 0.36 | 95 | 1010.5 |
| 20260509174959 | 11 | 78 | 1.6 | 1.6 | 0.61 | 0.28 | 0.28 | 96 | 1010.3 |
| 20260509174455 | 11 | 78 | 1.6 | 1.6 | 0.61 | 0.28 | 0.28 | 96 | 1010.3 |
| 20260509173950 | 11 | 165 | 0.0 | 0.0 | 0.61 | 0.18 | 0.18 | 95 | 1010.3 |
| 20260509173451 | 11 | 165 | 0.0 | 0.0 | 0.61 | 0.18 | 0.18 | 95 | 1010.3 |
| 20260509172947 | 12 | 152 | 0.0 | 0.0 | 0.30 | 0.08 | 0.08 | 95 | 1010.7 |
| 20260509172445 | 12 | 152 | 0.0 | 0.0 | 0.30 | 0.08 | 0.08 | 95 | 1010.7 |
| 20260509171940 | 12 | 161 | 0.0 | 1.6 | 0.18 | 0.03 | 0.03 | 93 | 1010.6 |
| 20260509171436 | 12 | 161 | 0.0 | 1.6 | 0.18 | 0.03 | 0.03 | 93 | 1010.6 |
| 20260509170933 | 12 | 157 | 1.6 | 1.6 | 0.00 | 0.00 | 0.00 | 92 | 1010.5 |
| 20260509170428 | 12 | 157 | 1.6 | 1.6 | 0.00 | 0.00 | 0.00 | 92 | 1010.5 |
| 20260509165924 | 12 | 143 | 0.0 | 0.0 | 0.00 | 0.00 | 0.00 | 90 | 1010.3 |
| 20260509165418 | 12 | 143 | 0.0 | 0.0 | 0.00 | 0.00 | 0.00 | 90 | 1010.3 |
| 20260509164914 | 12 | 132 | 0.0 | 0.0 | 0.00 | 0.00 | 0.00 | 89 | 1010.5 |
| 20260509164411 | 12 | 132 | 0.0 | 0.0 | 0.00 | 0.00 | 0.00 | 89 | 1010.5 |
| 20260509163907 | 12 | 134 | 0.0 | 0.0 | 0.00 | 0.00 | 0.00 | 90 | 1010.5 |
| 20260509163404 | 12 | 134 | 0.0 | 0.0 | 0.00 | 0.00 | 0.00 | 90 | 1010.5 |
| 20260509162903 | 12 | 124 | 0.0 | 0.0 | 0.00 | 0.00 | 0.00 | 90 | 1010.7 |
| 20260509162402 | 12 | 124 | 0.0 | 0.0 | 0.00 | 0.00 | 0.00 | 90 | 1010.7 |
| 20260509161857 | 12 | 107 | 1.6 | 1.6 | 0.00 | 0.00 | 0.00 | 89 | 1010.6 |
| 20260509161354 | 12 | 107 | 1.6 | 1.6 | 0.00 | 0.00 | 0.00 | 89 | 1010.6 |
| 20260509160850 | 12 | 151 | 0.0 | 0.0 | 0.00 | 0.00 | 0.00 | 89 | 1010.4 |
| 20260509160345 | 12 | 151 | 0.0 | 0.0 | 0.00 | 0.00 | 0.00 | 89 | 1010.4 |
| 20260509155841 | 12 | 108 | 0.0 | 1.6 | 0.00 | 0.00 | 0.00 | 89 | 1010.6 |
| 20260509155338 | 12 | 108 | 0.0 | 1.6 | 0.00 | 0.00 | 0.00 | 89 | 1010.6 |
| 20260509154834 | 12 | 153 | 0.0 | 0.0 | 0.00 | 0.00 | 0.00 | 92 | 1010.6 |
| 20260509154330 | 12 | 153 | 0.0 | 0.0 | 0.00 | 0.00 | 0.00 | 92 | 1010.6 |
| 20260509153827 | 12 | 118 | 0.0 | 0.0 | 0.00 | 0.00 | 0.00 | 93 | 1010.9 |
| 20260509153324 | 12 | 118 | 0.0 | 0.0 | 0.00 | 0.00 | 0.00 | 93 | 1010.9 |
| 20260509152821 | 12 | 120 | 0.0 | 0.0 | 0.00 | 0.00 | 0.00 | 93 | 1010.7 |
| 20260509152317 | 12 | 120 | 0.0 | 0.0 | 0.00 | 0.00 | 0.00 | 93 | 1010.7 |
| 20260509151815 | 12 | 120 | 0.0 | 0.0 | 0.00 | 0.00 | 0.00 | 96 | 1011.0 |
| 20260509151310 | 12 | 120 | 0.0 | 0.0 | 0.00 | 0.00 | 0.00 | 96 | 1011.0 |
| 20260509150809 | 12 | 119 | 0.0 | 0.0 | 0.00 | 0.00 | 0.00 | 97 | 1010.9 |
| 20260509150307 | 12 | 119 | 0.0 | 0.0 | 0.00 | 0.00 | 0.00 | 97 | 1010.9 |
| 20260509145803 | 11 | 119 | 0.0 | 0.0 | 0.00 | 0.00 | 0.00 | 96 | 1010.9 |
| 20260509145306 | 11 | 119 | 0.0 | 0.0 | 0.00 | 0.00 | 0.00 | 96 | 1010.9 |
| 20260509144800 | 11 | 119 | 0.0 | 0.0 | 0.00 | 0.00 | 0.00 | 96 | 1010.7 |
| 20260509144257 | 11 | 119 | 0.0 | 0.0 | 0.00 | 0.00 | 0.00 | 96 | 1010.7 |
| 20260509143754 | 11 | 119 | 0.0 | 0.0 | 0.00 | 0.00 | 0.00 | 95 | 1011.4 |
| 20260509143252 | 11 | 119 | 0.0 | 0.0 | 0.00 | 0.00 | 0.00 | 95 | 1011.4 |
| 20260509142747 | 11 | 119 | 0.0 | 0.0 | 0.00 | 0.00 | 0.00 | 94 | 1011.4 |
| 20260509142243 | 11 | 119 | 0.0 | 0.0 | 0.00 | 0.00 | 0.00 | 94 | 1011.4 |
| 20260509141739 | 11 | 117 | 0.0 | 0.0 | 0.00 | 0.00 | 0.00 | 95 | 1011.1 |
| 20260509141237 | 11 | 117 | 0.0 | 0.0 | 0.00 | 0.00 | 0.00 | 95 | 1011.1 |
| 20260509140733 | 11 | 117 | 0.0 | 0.0 | 0.00 | 0.00 | 0.00 | 93 | 1011.2 |
| 20260509140231 | 11 | 117 | 0.0 | 0.0 | 0.00 | 0.00 | 0.00 | 93 | 1011.2 |
| 20260509135728 | 11 | 117 | 0.0 | 0.0 | 0.00 | 0.00 | 0.00 | 94 | 1010.9 |
| 20260509135226 | 11 | 117 | 0.0 | 0.0 | 0.00 | 0.00 | 0.00 | 94 | 1010.9 |
| 20260509134722 | 11 | 117 | 0.0 | 0.0 | 0.00 | 0.00 | 0.00 | 96 | 1011.0 |
| 20260509134220 | 11 | 117 | 0.0 | 0.0 | 0.00 | 0.00 | 0.00 | 96 | 1011.0 |
| 20260509133717 | 11 | 117 | 0.0 | 0.0 | 0.00 | 0.00 | 0.00 | 97 | 1010.6 |
| 20260509133214 | 11 | 117 | 0.0 | 0.0 | 0.00 | 0.00 | 0.00 | 97 | 1010.6 |
| 20260509132712 | 11 | 117 | 0.0 | 0.0 | 0.00 | 0.00 | 0.00 | 98 | 1010.7 |
| 20260509132211 | 11 | 117 | 0.0 | 0.0 | 0.00 | 0.00 | 0.00 | 98 | 1010.7 |
| 20260509131707 | 11 | 117 | 0.0 | 0.0 | 0.00 | 0.00 | 0.00 | 98 | 1010.7 |
| 20260509131203 | 11 | 117 | 0.0 | 0.0 | 0.00 | 0.00 | 0.00 | 98 | 1010.7 |
| 20260509130659 | 10 | 117 | 0.0 | 0.0 | 0.00 | 0.00 | 0.00 | 98 | 1010.4 |
| 20260509130155 | 10 | 117 | 0.0 | 0.0 | 0.00 | 0.00 | 0.00 | 98 | 1010.4 |
| 20260509125652 | 10 | 117 | 0.0 | 0.0 | 0.00 | 0.00 | 0.00 | 98 | 1010.6 |
| 20260509125149 | 10 | 117 | 0.0 | 0.0 | 0.00 | 0.00 | 0.00 | 98 | 1010.6 |
| 20260509124645 | 10 | 118 | 0.0 | 0.0 | 0.00 | 0.00 | 0.00 | 99 | 1010.6 |
| 20260509124142 | 10 | 118 | 0.0 | 0.0 | 0.00 | 0.00 | 0.00 | 99 | 1010.6 |
| 20260509123640 | 10 | 118 | 0.0 | 0.0 | 0.00 | 0.00 | 0.00 | 99 | 1010.6 |
| 20260509123137 | 10 | 118 | 0.0 | 0.0 | 0.00 | 0.00 | 0.00 | 99 | 1010.6 |
| 20260509122633 | 10 | 118 | 0.0 | 0.0 | 0.00 | 0.00 | 0.00 | 99 | 1010.7 |
| 20260509122130 | 10 | 118 | 0.0 | 0.0 | 0.00 | 0.00 | 0.00 | 99 | 1010.7 |
| 20260509121626 | 10 | 118 | 0.0 | 0.0 | 0.00 | 0.00 | 0.00 | 99 | 1010.6 |
| 20260509121124 | 10 | 118 | 0.0 | 0.0 | 0.00 | 0.00 | 0.00 | 99 | 1010.6 |
| 20260509120622 | 10 | 118 | 0.0 | 0.0 | 0.00 | 0.00 | 0.00 | 99 | 1010.5 |
| 20260509120120 | 10 | 118 | 0.0 | 0.0 | 0.00 | 0.00 | 0.00 | 99 | 1010.7 |
| 20260509115617 | 10 | 118 | 0.0 | 0.0 | 0.00 | 0.00 | 0.00 | 99 | 1010.7 |
| 20260509115115 | 10 | 118 | 0.0 | 0.0 | 0.00 | 0.00 | 0.00 | 99 | 1011.0 |
| 20260509114613 | 10 | 118 | 0.0 | 0.0 | 0.00 | 0.00 | 0.00 | 99 | 1011.0 |
| 20260509114112 | 10 | 118 | 0.0 | 0.0 | 0.00 | 0.00 | 0.00 | 99 | 1011.1 |
| 20260509113609 | 10 | 118 | 0.0 | 0.0 | 0.00 | 0.00 | 0.00 | 99 | 1011.1 |
| 20260509113107 | 10 | 118 | 0.0 | 0.0 | 0.00 | 0.00 | 0.00 | 99 | 1011.1 |
| 20260509112602 | 10 | 118 | 0.0 | 0.0 | 0.00 | 0.00 | 0.00 | 99 | 1011.1 |
| 20260509112100 | 10 | 118 | 0.0 | 0.0 | 0.00 | 0.00 | 0.00 | 99 | 1011.0 |
| 20260509111557 | 10 | 118 | 0.0 | 0.0 | 0.00 | 0.00 | 0.00 | 99 | 1011.0 |
| 20260509111054 | 10 | 118 | 0.0 | 0.0 | 0.00 | 0.00 | 0.00 | 99 | 1011.4 |
| 20260509110551 | 10 | 118 | 0.0 | 0.0 | 0.00 | 0.00 | 0.00 | 99 | 1011.4 |
| 20260509110048 | 10 | 118 | 0.0 | 0.0 | 0.00 | 0.00 | 0.00 | 99 | 1011.3 |
| 20260509105546 | 10 | 118 | 0.0 | 0.0 | 0.00 | 0.00 | 0.00 | 99 | 1011.3 |
| 20260509105044 | 10 | 118 | 0.0 | 0.0 | 0.00 | 0.00 | 0.00 | 99 | 1010.9 |
| 20260509104540 | 10 | 118 | 0.0 | 0.0 | 0.00 | 0.00 | 0.00 | 99 | 1010.9 |
| 20260509104037 | 10 | 118 | 0.0 | 0.0 | 0.00 | 0.00 | 0.00 | 99 | 1011.2 |
| 20260509103535 | 10 | 118 | 0.0 | 0.0 | 0.00 | 0.00 | 0.00 | 99 | 1011.2 |
| 20260509103033 | 9 | 118 | 0.0 | 0.0 | 0.00 | 0.00 | 0.00 | 99 | 1011.1 |
| 20260509102530 | 9 | 118 | 0.0 | 0.0 | 0.00 | 0.00 | 0.00 | 99 | 1011.1 |
| 20260509102027 | 9 | 118 | 0.0 | 0.0 | 0.00 | 0.00 | 0.00 | 99 | 1011.2 |
| 20260509101523 | 9 | 118 | 0.0 | 0.0 | 0.00 | 0.00 | 0.00 | 99 | 1011.2 |
| 20260509101020 | 9 | 118 | 0.0 | 0.0 | 0.00 | 0.00 | 0.00 | 99 | 1011.0 |
| 20260509100517 | 9 | 118 | 0.0 | 0.0 | 0.00 | 0.00 | 0.00 | 99 | 1011.0 |
| 20260509100015 | 10 | 118 | 0.0 | 0.0 | 0.00 | 0.00 | 0.00 | 99 | 1011.3 |
| 20260509095511 | 10 | 118 | 0.0 | 0.0 | 0.00 | 0.00 | 0.00 | 99 | 1011.3 |
| 20260509095008 | 9 | 118 | 0.0 | 0.0 | 0.00 | 0.00 | 0.00 | 99 | 1010.9 |
| 20260509094504 | 9 | 118 | 0.0 | 0.0 | 0.00 | 0.00 | 0.00 | 99 | 1010.9 |
| 20260509094002 | 9 | 118 | 0.0 | 0.0 | 0.00 | 0.00 | 0.00 | 99 | 1010.9 |
| 20260509093500 | 9 | 118 | 0.0 | 0.0 | 0.00 | 0.00 | 0.00 | 99 | 1010.9 |
| 20260509092957 | 9 | 118 | 0.0 | 0.0 | 0.00 | 0.00 | 0.00 | 99 | 1010.9 |
| 20260509092455 | 9 | 118 | 0.0 | 0.0 | 0.00 | 0.00 | 0.00 | 99 | 1010.9 |
| 20260509091953 | 9 | 118 | 0.0 | 0.0 | 0.00 | 0.00 | 0.00 | 98 | 1011.2 |
| 20260509091450 | 9 | 118 | 0.0 | 0.0 | 0.00 | 0.00 | 0.00 | 98 | 1011.2 |
| 20260509090947 | 9 | 118 | 0.0 | 0.0 | 0.00 | 0.00 | 0.00 | 98 | 1011.2 |
| 20260509090444 | 9 | 118 | 0.0 | 0.0 | 0.00 | 0.00 | 0.00 | 98 | 1011.2 |
| 20260509085942 | 10 | 118 | 0.0 | 0.0 | 0.00 | 0.00 | 0.00 | 98 | 1011.5 |
| 20260509085438 | 10 | 118 | 0.0 | 0.0 | 0.00 | 0.00 | 0.00 | 98 | 1011.5 |
| 20260509084935 | 9 | 118 | 0.0 | 0.0 | 0.00 | 0.00 | 0.00 | 99 | 1011.8 |
| 20260509084432 | 9 | 118 | 0.0 | 0.0 | 0.00 | 0.00 | 0.00 | 99 | 1011.8 |
| 20260509083929 | 9 | 118 | 0.0 | 0.0 | 0.00 | 0.00 | 0.00 | 98 | 1012.0 |
| 20260509083426 | 9 | 118 | 0.0 | 0.0 | 0.00 | 0.00 | 0.00 | 98 | 1012.0 |
| 20260509082923 | 10 | 118 | 0.0 | 0.0 | 0.00 | 0.00 | 0.00 | 98 | 1012.1 |
| 20260509082420 | 10 | 118 | 0.0 | 0.0 | 0.00 | 0.00 | 0.00 | 98 | 1012.1 |
| 20260509081917 | 10 | 118 | 0.0 | 0.0 | 0.00 | 0.00 | 0.00 | 98 | 1012.0 |
| 20260509081415 | 10 | 118 | 0.0 | 0.0 | 0.00 | 0.00 | 0.00 | 98 | 1012.0 |
| 20260509080912 | 9 | 118 | 0.0 | 0.0 | 0.00 | 0.00 | 0.00 | 98 | 1011.9 |
| 20260509080410 | 9 | 118 | 0.0 | 0.0 | 0.00 | 0.00 | 0.00 | 98 | 1011.9 |
| 20260509075908 | 9 | 118 | 0.0 | 0.0 | 0.00 | 0.00 | 0.00 | 98 | 1011.9 |
| 20260509075404 | 9 | 118 | 0.0 | 0.0 | 0.00 | 0.00 | 0.00 | 98 | 1011.9 |
| 20260509074902 | 9 | 118 | 0.0 | 0.0 | 0.00 | 0.00 | 0.00 | 98 | 1011.8 |
| 20260509074359 | 9 | 118 | 0.0 | 0.0 | 0.00 | 0.00 | 0.00 | 98 | 1011.8 |
| 20260509073855 | 9 | 118 | 0.0 | 0.0 | 0.00 | 0.00 | 0.00 | 98 | 1012.1 |
| 20260509073352 | 9 | 118 | 0.0 | 0.0 | 0.00 | 0.00 | 0.00 | 98 | 1012.1 |
| 20260509072848 | 9 | 118 | 0.0 | 0.0 | 0.00 | 0.00 | 0.00 | 98 | 1012.2 |
| 20260509072345 | 9 | 118 | 0.0 | 0.0 | 0.00 | 0.00 | 0.00 | 98 | 1012.2 |
| 20260509071842 | 9 | 118 | 0.0 | 0.0 | 0.00 | 0.00 | 0.00 | 98 | 1012.1 |
| 20260509071338 | 9 | 118 | 0.0 | 0.0 | 0.00 | 0.00 | 0.00 | 98 | 1012.1 |
| 20260509070836 | 9 | 118 | 0.0 | 0.0 | 0.00 | 0.00 | 0.00 | 98 | 1011.8 |
| 20260509070333 | 9 | 118 | 0.0 | 0.0 | 0.00 | 0.00 | 0.00 | 98 | 1011.8 |
| 20260509065829 | 9 | 118 | 0.0 | 0.0 | 0.00 | 0.00 | 0.00 | 98 | 1011.8 |
| 20260509065325 | 9 | 118 | 0.0 | 0.0 | 0.00 | 0.00 | 0.00 | 98 | 1011.8 |
| 20260509064821 | 10 | 118 | 0.0 | 0.0 | 0.00 | 0.00 | 0.00 | 98 | 1012.0 |
| 20260509064319 | 10 | 118 | 0.0 | 0.0 | 0.00 | 0.00 | 0.00 | 98 | 1012.0 |
| 20260509063816 | 10 | 118 | 0.0 | 0.0 | 0.00 | 0.00 | 0.00 | 97 | 1012.1 |
| 20260509063312 | 10 | 118 | 0.0 | 0.0 | 0.00 | 0.00 | 0.00 | 97 | 1012.1 |
| 20260509062810 | 9 | 118 | 0.0 | 0.0 | 0.00 | 0.00 | 0.00 | 97 | 1012.4 |
| 20260509062307 | 9 | 118 | 0.0 | 0.0 | 0.00 | 0.00 | 0.00 | 97 | 1012.4 |
| 20260509061804 | 9 | 118 | 0.0 | 0.0 | 0.00 | 0.00 | 0.00 | 97 | 1012.6 |
| 20260509061302 | 9 | 118 | 0.0 | 0.0 | 0.00 | 0.00 | 0.00 | 97 | 1012.6 |
| 20260509060758 | 10 | 118 | 0.0 | 0.0 | 0.00 | 0.00 | 0.00 | 97 | 1012.7 |
| 20260509060255 | 10 | 118 | 0.0 | 0.0 | 0.00 | 0.00 | 0.00 | 97 | 1012.7 |
| 20260509055751 | 9 | 118 | 0.0 | 0.0 | 0.00 | 0.00 | 0.00 | 97 | 1012.9 |
| 20260509055247 | 9 | 118 | 0.0 | 0.0 | 0.00 | 0.00 | 0.00 | 97 | 1012.9 |
| 20260509054744 | 9 | 118 | 0.0 | 0.0 | 0.00 | 0.00 | 0.00 | 98 | 1013.0 |
| 20260509054240 | 9 | 118 | 0.0 | 0.0 | 0.00 | 0.00 | 0.00 | 98 | 1013.0 |
| 20260509053739 | 9 | 117 | 0.0 | 0.0 | 0.00 | 0.00 | 0.00 | 98 | 1012.7 |
| 20260509053235 | 9 | 117 | 0.0 | 0.0 | 0.00 | 0.00 | 0.00 | 98 | 1012.7 |
| 20260509052734 | 9 | 118 | 0.0 | 0.0 | 0.00 | 0.00 | 0.00 | 98 | 1012.3 |
| 20260509052231 | 9 | 118 | 0.0 | 0.0 | 0.00 | 0.00 | 0.00 | 98 | 1012.3 |
| 20260509051728 | 9 | 117 | 0.0 | 0.0 | 0.00 | 0.00 | 0.00 | 97 | 1012.0 |
| 20260509051226 | 9 | 117 | 0.0 | 0.0 | 0.00 | 0.00 | 0.00 | 97 | 1012.0 |
| 20260509050723 | 9 | 117 | 0.0 | 0.0 | 0.00 | 0.00 | 0.00 | 97 | 1012.0 |
| 20260509050219 | 9 | 117 | 0.0 | 0.0 | 0.00 | 0.00 | 0.00 | 97 | 1012.0 |
| 20260509045717 | 9 | 117 | 0.0 | 0.0 | 0.00 | 0.00 | 0.00 | 97 | 1012.0 |
| 20260509045214 | 9 | 117 | 0.0 | 0.0 | 0.00 | 0.00 | 0.00 | 97 | 1012.0 |
| 20260509044711 | 8 | 117 | 0.0 | 0.0 | 0.00 | 0.00 | 0.00 | 97 | 1012.1 |
| 20260509044209 | 8 | 117 | 0.0 | 0.0 | 0.00 | 0.00 | 0.00 | 97 | 1012.1 |
| 20260509043704 | 8 | 117 | 0.0 | 0.0 | 0.00 | 0.00 | 0.00 | 97 | 1012.3 |
| 20260509043200 | 8 | 117 | 0.0 | 0.0 | 0.00 | 0.00 | 0.00 | 97 | 1012.3 |
| 20260509042657 | 9 | 117 | 0.0 | 0.0 | 0.00 | 0.00 | 0.00 | 97 | 1012.4 |
| 20260509042153 | 9 | 117 | 0.0 | 0.0 | 0.00 | 0.00 | 0.00 | 97 | 1012.4 |
| 20260509041650 | 9 | 118 | 0.0 | 0.0 | 0.00 | 0.00 | 0.00 | 97 | 1012.6 |
| 20260509041147 | 9 | 118 | 0.0 | 0.0 | 0.00 | 0.00 | 0.00 | 97 | 1012.6 |
| 20260509040646 | 8 | 117 | 0.0 | 0.0 | 0.00 | 0.00 | 0.00 | 97 | 1012.3 |
| 20260509040142 | 8 | 117 | 0.0 | 0.0 | 0.00 | 0.00 | 0.00 | 97 | 1012.3 |
| 20260509035639 | 8 | 117 | 0.0 | 0.0 | 0.00 | 0.08 | 0.08 | 96 | 1012.3 |
| 20260509035136 | 8 | 117 | 0.0 | 0.0 | 0.00 | 0.08 | 0.08 | 96 | 1012.3 |
| 20260509034633 | 8 | 117 | 0.0 | 0.0 | 0.00 | 0.08 | 0.08 | 96 | 1012.4 |
| 20260509034130 | 8 | 117 | 0.0 | 0.0 | 0.00 | 0.08 | 0.08 | 96 | 1012.4 |
| 20260509033627 | 8 | 117 | 0.0 | 0.0 | 0.00 | 0.08 | 0.08 | 96 | 1012.4 |
| 20260509033124 | 8 | 117 | 0.0 | 0.0 | 0.00 | 0.08 | 0.08 | 96 | 1012.4 |
| 20260509032622 | 8 | 117 | 0.0 | 0.0 | 0.00 | 0.08 | 0.08 | 96 | 1012.5 |
| 20260509032118 | 8 | 117 | 0.0 | 0.0 | 0.00 | 0.08 | 0.08 | 96 | 1012.5 |
| 20260509031616 | 8 | 117 | 0.0 | 0.0 | 0.00 | 0.08 | 0.08 | 96 | 1012.8 |
| 20260509031113 | 8 | 117 | 0.0 | 0.0 | 0.00 | 0.08 | 0.08 | 96 | 1012.8 |
| 20260509030611 | 8 | 117 | 0.0 | 0.0 | 0.00 | 0.08 | 0.08 | 96 | 1012.8 |
| 20260509030108 | 8 | 117 | 0.0 | 0.0 | 0.00 | 0.08 | 0.08 | 96 | 1012.8 |
| 20260509025604 | 8 | 117 | 0.0 | 0.0 | 0.00 | 0.08 | 0.08 | 95 | 1012.7 |
| 20260509025100 | 8 | 117 | 0.0 | 0.0 | 0.00 | 0.08 | 0.08 | 95 | 1012.7 |
| 20260509024556 | 8 | 117 | 0.0 | 0.0 | 0.00 | 0.08 | 0.08 | 95 | 1012.7 |
| 20260509024052 | 8 | 117 | 0.0 | 0.0 | 0.00 | 0.08 | 0.08 | 95 | 1012.7 |
| 20260509023550 | 8 | 117 | 0.0 | 0.0 | 0.00 | 0.08 | 0.08 | 94 | 1012.3 |
| 20260509023046 | 8 | 117 | 0.0 | 0.0 | 0.00 | 0.08 | 0.08 | 94 | 1012.3 |
| 20260509022543 | 9 | 117 | 0.0 | 0.0 | 0.00 | 0.08 | 0.08 | 94 | 1012.3 |
| 20260509022041 | 9 | 117 | 0.0 | 0.0 | 0.00 | 0.08 | 0.08 | 94 | 1012.3 |
| 20260509021538 | 9 | 117 | 0.0 | 0.0 | 0.00 | 0.08 | 0.08 | 94 | 1012.5 |
| 20260509021035 | 9 | 117 | 0.0 | 0.0 | 0.00 | 0.08 | 0.08 | 94 | 1012.5 |
| 20260509020533 | 10 | 117 | 0.0 | 0.0 | 0.00 | 0.08 | 0.08 | 94 | 1012.6 |
| 20260509020029 | 10 | 117 | 0.0 | 0.0 | 0.00 | 0.08 | 0.08 | 94 | 1012.6 |
| 20260509015529 | 10 | 117 | 0.0 | 0.0 | 0.00 | 0.08 | 0.08 | 94 | 1012.5 |
| 20260509015025 | 10 | 117 | 0.0 | 0.0 | 0.00 | 0.08 | 0.08 | 94 | 1012.5 |
| 20260509014522 | 10 | 118 | 0.0 | 0.0 | 0.00 | 0.08 | 0.08 | 95 | 1012.3 |
| 20260509014018 | 10 | 118 | 0.0 | 0.0 | 0.00 | 0.08 | 0.08 | 95 | 1012.3 |
| 20260509013515 | 10 | 118 | 0.0 | 0.0 | 0.00 | 0.08 | 0.08 | 94 | 1012.4 |
| 20260509013011 | 10 | 117 | 0.0 | 0.0 | 0.00 | 0.08 | 0.08 | 94 | 1012.3 |
| 20260509012508 | 10 | 117 | 0.0 | 0.0 | 0.00 | 0.08 | 0.08 | 94 | 1012.3 |
| 20260509012005 | 10 | 117 | 0.0 | 0.0 | 0.00 | 0.08 | 0.08 | 94 | 1012.2 |
| 20260509011502 | 10 | 117 | 0.0 | 0.0 | 0.00 | 0.08 | 0.08 | 94 | 1012.2 |
| 20260509011000 | 10 | 117 | 0.0 | 0.0 | 0.00 | 0.08 | 0.08 | 94 | 1011.9 |
| 20260509010457 | 10 | 117 | 0.0 | 0.0 | 0.00 | 0.08 | 0.08 | 94 | 1011.9 |
| 20260509005954 | 10 | 117 | 0.0 | 0.0 | 0.00 | 0.08 | 0.08 | 94 | 1011.8 |
| 20260509005452 | 10 | 117 | 0.0 | 0.0 | 0.00 | 0.08 | 0.08 | 94 | 1011.8 |
| 20260509004951 | 10 | 117 | 0.0 | 0.0 | 0.00 | 0.08 | 0.08 | 93 | 1011.7 |
| 20260509004449 | 10 | 117 | 0.0 | 0.0 | 0.00 | 0.08 | 0.08 | 93 | 1011.7 |
| 20260509003946 | 10 | 117 | 0.0 | 0.0 | 0.00 | 0.08 | 0.08 | 93 | 1011.9 |
| 20260509003444 | 10 | 117 | 0.0 | 0.0 | 0.00 | 0.08 | 0.08 | 93 | 1011.9 |
| 20260509002941 | 10 | 117 | 0.0 | 0.0 | 0.00 | 0.08 | 0.08 | 92 | 1011.7 |
| 20260509002439 | 10 | 117 | 0.0 | 0.0 | 0.00 | 0.08 | 0.08 | 92 | 1011.7 |
| 20260509001936 | 10 | 117 | 0.0 | 0.0 | 0.00 | 0.08 | 0.08 | 92 | 1011.7 |
| 20260509001432 | 10 | 117 | 0.0 | 0.0 | 0.00 | 0.08 | 0.08 | 92 | 1011.7 |
| 20260509000929 | 10 | 117 | 0.0 | 0.0 | 0.00 | 0.08 | 0.08 | 91 | 1011.4 |
| 20260509000427 | 10 | 117 | 0.0 | 0.0 | 0.00 | 0.08 | 0.08 | 91 | 1011.4 |